This is the latest recevied weather packets stored in our database for station/object KD7ECD. If no packets are shown the sender has not sent any weather packets the latest 10 day(s).
| Time | Temp. | Humidity | Pressure | Rain* | Wind** | Luminosity | Snow |
|---|---|---|---|---|---|---|---|
| 1777756115 | 17.78° C | 74% | 1015.2 hPa | 0 mm | - | 706 W/m² | - |
| 1777755515 | 17.22° C | 75% | 1015.4 hPa | 0 mm | - | 652 W/m² | - |
| 1777754914 | 17.22° C | 74% | 1015.4 hPa | 0 mm | - | 728 W/m² | - |
| 1777754314 | 17.22° C | 76% | 1015.5 hPa | 0 mm | - | 752 W/m² | - |
| 1777753711 | 16.67° C | 76% | 1015.7 hPa | 0 mm | - | 793 W/m² | - |
| 1777753107 | 16.67° C | 77% | 1015.7 hPa | 0 mm | - | 692 W/m² | - |
| 1777752505 | 16.11° C | 78% | 1015.6 hPa | 0 mm | - | 841 W/m² | - |
| 1777751905 | 16.11° C | 79% | 1015.8 hPa | 0 mm | - | 692 W/m² | - |
| 1777751304 | 16.11° C | 78% | 1015.8 hPa | 0 mm | - | 623 W/m² | - |
| 1777750702 | 15.56° C | 80% | 1015.9 hPa | 0 mm | - | 483 W/m² | - |
| 1777750100 | 15.56° C | 80% | 1016.1 hPa | 0 mm | - | 916 W/m² | - |
| 1777749495 | 15.56° C | 82% | 1015.9 hPa | 0 mm | - | 914 W/m² | - |
| 1777748890 | 15° C | 84% | 1016.1 hPa | 0 mm | - | 749 W/m² | - |
| 1777748288 | 14.44° C | 84% | 1016.2 hPa | 0 mm | - | 320 W/m² | - |
| 1777747688 | 14.44° C | 86% | 1016.1 hPa | 0 mm | - | 493 W/m² | - |
| 1777747086 | 14.44° C | 86% | 1016.4 hPa | 0 mm | - | 478 W/m² | - |
| 1777746483 | 13.89° C | 89% | 1016.2 hPa | 0 mm | - | 382 W/m² | - |
| 1777745881 | 12.78° C | 90% | 1016.4 hPa | 0 mm | - | 183 W/m² | - |
| 1777745278 | 12.78° C | 90% | 1016.4 hPa | 0 mm | - | 158 W/m² | - |
| 1777744675 | 13.33° C | 90% | 1016.3 hPa | 0 mm | - | 202 W/m² | - |
| 1777744073 | 12.78° C | 91% | 1016.4 hPa | 0 mm | - | 220 W/m² | - |
| 1777743473 | 12.78° C | 91% | 1016.3 hPa | 0 mm | - | 208 W/m² | - |
| 1777742868 | 12.78° C | 92% | 1016.4 hPa | 0 mm | - | 180 W/m² | - |
| 1777742266 | 12.78° C | 93% | 1016.1 hPa | 0 mm | - | 154 W/m² | - |
| 1777741666 | 12.22° C | 93% | 1016.2 hPa | 0 mm | - | 161 W/m² | - |
* Rain latest hour (hover to see other rain measurements)
** Current wind speed in m/s (hover to see current wind gust speed)